This is the latest recevied weather packets stored in our database for station/object N4DBJ. If no packets are shown the sender has not sent any weather packets the latest 10 day(s).
| Time | Temp. | Humidity | Pressure | Rain* | Wind** | Luminosity | Snow |
|---|---|---|---|---|---|---|---|
| 1777468859 | 17.78° C | 99% | 1009 hPa | 0 mm | - | 178 W/m² | - |
| 1777468556 | 17.78° C | 99% | 1009.1 hPa | 0 mm | - | 114 W/m² | - |
| 1777468253 | 17.78° C | 99% | 1009.2 hPa | 0 mm | - | 90 W/m² | - |
| 1777467950 | 17.78° C | 99% | 1009.2 hPa | 0 mm | - | 75 W/m² | - |
| 1777467645 | 17.78° C | 99% | 1009.2 hPa | 0 mm | - | 67 W/m² | - |
| 1777467340 | 17.78° C | 99% | 1009.2 hPa | 0 mm | - | 29 W/m² | - |
| 1777467037 | 17.22° C | 99% | 1009.7 hPa | 0 mm | - | 42 W/m² | - |
| 1777466735 | 17.22° C | 99% | 1009.5 hPa | 0 mm | - | 47 W/m² | - |
| 1777466432 | 17.22° C | 99% | 1009.4 hPa | 0 mm | - | 69 W/m² | - |
| 1777466127 | 17.22° C | 99% | 1009.6 hPa | 0 mm | - | 78 W/m² | - |
| 1777465824 | 17.22° C | 99% | 1009.3 hPa | 0 mm | - | 31 W/m² | - |
| 1777465520 | 17.22° C | 99% | 1009.4 hPa | 0 mm | - | 39 W/m² | - |
| 1777465215 | 17.22° C | 99% | 1009.4 hPa | 0 mm | - | 42 W/m² | - |
| 1777464909 | 16.67° C | 99% | 1009.5 hPa | 0 mm | - | 29 W/m² | - |
| 1777464605 | 16.67° C | 99% | 1009.4 hPa | 0 mm | - | 10 W/m² | - |
| 1777464301 | 16.67° C | 99% | 1009.4 hPa | 0 mm | - | 32 W/m² | - |
| 1777463996 | 16.67° C | 99% | 1009.1 hPa | 0 mm | - | 18 W/m² | - |
| 1777463692 | 16.67° C | 99% | 1009.1 hPa | 0 mm | - | 17 W/m² | - |
| 1777463387 | 16.67° C | 99% | 1009.1 hPa | 0 mm | - | 14 W/m² | - |
| 1777463083 | 16.67° C | 99% | 1009.3 hPa | 0 mm | - | 12 W/m² | - |
| 1777462779 | 16.67° C | 99% | 1009.1 hPa | 0 mm | - | 14 W/m² | - |
| 1777462474 | 16.67° C | 99% | 1009 hPa | 0 mm | - | 22 W/m² | - |
| 1777462171 | 16.67° C | 99% | 1009.2 hPa | 0 mm | - | 19 W/m² | - |
| 1777461868 | 16.67° C | 99% | 1009.2 hPa | 0 mm | - | 15 W/m² | - |
| 1777461564 | 16.67° C | 99% | 1009.3 hPa | 0 mm | - | 8 W/m² | - |
* Rain latest hour (hover to see other rain measurements)
** Current wind speed in m/s (hover to see current wind gust speed)